Location: Bismarck
(46.7731°N, 100.8200°W)
Time: 07:01:17
(UTC-05:00)

ISS - Visible Passes

Search period start: 20 April 2014 00:00
Search period end: 30 April 2014 00:00
Orbit: 414 x 419 km, 51.6° (Epoch: 20 April)

Date Brightness Start Highest point End Pass type
(mag) Time Alt. Az. Time Alt. Az. Time Alt. Az.
20 Apr -2.8 22:01:14 10° WNW 22:04:30 50° SSW 22:06:02 26° SSE visible
21 Apr -3.2 21:12:40 10° WNW 21:16:02 78° SSW 21:19:23 10° ESE visible
21 Apr -0.8 22:50:30 10° WSW 22:52:18 14° SW 22:52:25 14° SW visible
22 Apr -1.4 22:01:17 10° W 22:03:56 22° SW 22:05:54 14° S visible
23 Apr -2.0 21:12:23 10° WNW 21:15:28 34° SW 21:18:32 10° SSE visible
